"Sample Date","Sample Time","Sample Value","Units","Flow Rate","Number Channels","Micron Size 0","Counts/Channel 0","Micron Size 1","Counts/Channel 1","Micron Size 2","Counts/Channel 2","Micron Size 3","Counts/Channel 3","Micron Size 4","Counts/Channel 4","Micron Size 5","Counts/Channel 5","Micron Size 6","Counts/Channel 6","Micron Size 7","Counts/Channel 7","Micron Size 8","Counts/Channel 8","Micron Size 9","Counts/Channel 9","Micron Size 10","Counts/Channel 10","Micron Size 11","Counts/Channel 11","Micron Size 12","Counts/Channel 12","Micron Size 13","Counts/Channel 13","Micron Size 14","Counts/Channel 14","Micron Size 15","Counts/Channel 15","Micron Size 16","Counts/Channel 16","Micron Size 17","Counts/Channel 17","Micron Size 18","Counts/Channel 18","Micron Size 19","Counts/Channel 19","Micron Size 20","Counts/Channel 20","Micron Size 21","Counts/Channel 21","Micron Size 22","Counts/Channel 22","Micron Size 23","Counts/Channel 23","Micron Size 24","Counts/Channel 24","Micron Size 25","Counts/Channel 25","Micron Size 26","Counts/Channel 26","Micron Size 27","Counts/Channel 27","Micron Size 28","Counts/Channel 28","Micron Size 29","Counts/Channel 29","Micron Size 30","Counts/Channel 30","Micron Size 31","Counts/Channel 31"
"05/04/08","23:00:01",193.000,"cc",28307.672,6,0.100,88.000,0.200,29.000,0.300,38.000,0.500,38.000,1.000,0,5.000,0
"05/04/08","23:00:07",207.000,"cc",28309.766,6,0.100,82.000,0.200,32.000,0.300,51.000,0.500,42.000,1.000,0,5.000,0
"05/04/08","23:00:13",158.000,"cc",28291.717,6,0.100,61.000,0.200,25.000,0.300,35.000,0.500,37.000,1.000,0,5.000,0
"05/04/08","23:00:19",209.000,"cc",28334.307,6,0.100,82.000,0.200,39.000,0.300,41.000,0.500,47.000,1.000,0,5.000,0
"05/04/08","23:00:25",136.000,"cc",28311.670,6,0.100,61.000,0.200,23.000,0.300,30.000,0.500,22.000,1.000,0,5.000,0
"05/04/08","23:00:31",215.000,"cc",28351.566,6,0.100,97.000,0.200,36.000,0.300,36.000,0.500,45.000,1.000,1.000,5.000,0
"05/04/08","23:00:37",196.000,"cc",28278.051,6,0.100,75.000,0.200,27.000,0.300,53.000,0.500,41.000,1.000,0,5.000,0
"05/04/08","23:00:43",173.000,"cc",28284.879,6,0.100,72.000,0.200,27.000,0.300,42.000,0.500,32.000,1.000,0,5.000,0
"05/04/08","23:00:49",159.000,"cc",28325.772,6,0.100,61.000,0.200,31.000,0.300,41.000,0.500,26.000,1.000,0,5.000,0
"05/04/08","23:00:55",216.000,"cc",28367.684,6,0.100,103.000,0.200,26.000,0.300,53.000,0.500,34.000,1.000,0,5.000,0
"05/04/08","23:01:01",191.000,"cc",28323.701,6,0.100,76.000,0.200,28.000,0.300,48.000,0.500,39.000,1.000,0,5.000,0
"05/04/08","23:01:07",204.000,"cc",28257.772,6,0.100,85.000,0.200,29.000,0.300,51.000,0.500,39.000,1.000,0,5.000,0
"05/04/08","23:01:13",207.000,"cc",28326.107,6,0.100,85.000,0.200,24.000,0.300,43.000,0.500,55.000,1.000,0,5.000,0
"05/04/08","23:01:19",179.000,"cc",28327.254,6,0.100,66.000,0.200,30.000,0.300,41.000,0.500,42.000,1.000,0,5.000,0
"05/04/08","23:01:25",204.000,"cc",28314.711,6,0.100,83.000,0.200,28.000,0.300,57.000,0.500,36.000,1.000,0,5.000,0
"05/04/08","23:01:31",187.000,"cc",28303.914,6,0.100,72.000,0.200,22.000,0.300,46.000,0.500,47.000,1.000,0,5.000,0
"05/04/08","23:01:37",198.000,"cc",28360.086,6,0.100,73.000,0.200,30.000,0.300,57.000,0.500,38.000,1.000,0,5.000,0
"05/04/08","23:01:43",194.000,"cc",28286.510,6,0.100,90.000,0.200,19.000,0.300,52.000,0.500,33.000,1.000,0,5.000,0
"05/04/08","23:01:49",188.000,"cc",28311.801,6,0.100,75.000,0.200,29.000,0.300,42.000,0.500,42.000,1.000,0,5.000,0
"05/04/08","23:01:55",183.000,"cc",28266.309,6,0.100,76.000,0.200,35.000,0.300,48.000,0.500,24.000,1.000,0,5.000,0
"05/04/08","23:02:01",215.000,"cc",28372.565,6,0.100,79.000,0.200,28.000,0.300,59.000,0.500,48.000,1.000,1.000,5.000,0
"05/04/08","23:02:07",213.000,"cc",28374.281,6,0.100,93.000,0.200,32.000,0.300,57.000,0.500,31.000,1.000,0,5.000,0
"05/04/08","23:02:13",177.000,"cc",28331.012,6,0.100,70.000,0.200,34.000,0.300,36.000,0.500,37.000,1.000,0,5.000,0
"05/04/08","23:02:19",218.000,"cc",28273.865,6,0.100,91.000,0.200,26.000,0.300,57.000,0.500,44.000,1.000,0,5.000,0
"05/04/08","23:02:25",190.000,"cc",28331.348,6,0.100,78.000,0.200,31.000,0.300,43.000,0.500,38.000,1.000,0,5.000,0
"05/04/08","23:02:31",196.000,"cc",28267.398,6,0.100,84.000,0.200,29.000,0.300,51.000,0.500,32.000,1.000,0,5.000,0
"05/04/08","23:02:37",187.000,"cc",28359.088,6,0.100,97.000,0.200,23.000,0.300,35.000,0.500,32.000,1.000,0,5.000,0
"05/04/08","23:02:43",188.000,"cc",28325.641,6,0.100,73.000,0.200,35.000,0.300,41.000,0.500,38.000,1.000,1.000,5.000,0
"05/04/08","23:02:49",200.000,"cc",28292.869,6,0.100,84.000,0.200,39.000,0.300,44.000,0.500,33.000,1.000,0,5.000,0
"05/04/08","23:02:55",207.000,"cc",28338.844,6,0.100,74.000,0.200,39.000,0.300,46.000,0.500,48.000,1.000,0,5.000,0
"05/04/08","23:03:01",175.000,"cc",28328.363,6,0.100,86.000,0.200,23.000,0.300,41.000,0.500,25.000,1.000,0,5.000,0
"05/04/08","23:03:07",173.000,"cc",28274.500,6,0.100,68.000,0.200,31.000,0.300,42.000,0.500,32.000,1.000,0,5.000,0
"05/04/08","23:03:13",173.000,"cc",28321.070,6,0.100,66.000,0.200,20.000,0.300,44.000,0.500,43.000,1.000,0,5.000,0
"05/04/08","23:03:19",163.000,"cc",28284.707,6,0.100,77.000,0.200,21.000,0.300,42.000,0.500,23.000,1.000,0,5.000,0
"05/04/08","23:03:25",216.000,"cc",28287.158,6,0.100,94.000,0.200,31.000,0.300,53.000,0.500,38.000,1.000,0,5.000,0
"05/04/08","23:03:31",205.000,"cc",28413.666,6,0.100,99.000,0.200,24.000,0.300,48.000,0.500,34.000,1.000,0,5.000,0
"05/04/08","23:03:37",195.000,"cc",28336.522,6,0.100,75.000,0.200,33.000,0.300,51.000,0.500,36.000,1.000,0,5.000,0
"05/04/08","23:03:43",194.000,"cc",28251.229,6,0.100,89.000,0.200,32.000,0.300,47.000,0.500,26.000,1.000,0,5.000,0
"05/04/08","23:03:49",222.000,"cc",28270.096,6,0.100,104.000,0.200,27.000,0.300,40.000,0.500,51.000,1.000,0,5.000,0
"05/04/08","23:03:55",179.000,"cc",28280.631,6,0.100,81.000,0.200,30.000,0.300,41.000,0.500,27.000,1.000,0,5.000,0
"05/04/08","23:04:01",187.000,"cc",28379.955,6,0.100,90.000,0.200,23.000,0.300,34.000,0.500,40.000,1.000,0,5.000,0
"05/04/08","23:04:07",199.000,"cc",28331.191,6,0.100,78.000,0.200,24.000,0.300,60.000,0.500,37.000,1.000,0,5.000,0
"05/04/08","23:04:13",204.000,"cc",28303.475,6,0.100,93.000,0.200,25.000,0.300,41.000,0.500,45.000,1.000,0,5.000,0
"05/04/08","23:04:19",173.000,"cc",28315.815,6,0.100,60.000,0.200,24.000,0.300,40.000,0.500,49.000,1.000,0,5.000,0
"05/04/08","23:04:25",229.000,"cc",28320.990,6,0.100,93.000,0.200,38.000,0.300,53.000,0.500,45.000,1.000,0,5.000,0
"05/04/08","23:04:31",186.000,"cc",28280.703,6,0.100,76.000,0.200,25.000,0.300,45.000,0.500,40.000,1.000,0,5.000,0
"05/04/08","23:04:37",201.000,"cc",28361.121,6,0.100,73.000,0.200,31.000,0.300,52.000,0.500,44.000,1.000,1.000,5.000,0
"05/04/08","23:04:43",166.000,"cc",28338.777,6,0.100,63.000,0.200,29.000,0.300,39.000,0.500,35.000,1.000,0,5.000,0
"05/04/08","23:04:49",213.000,"cc",28251.316,6,0.100,100.000,0.200,32.000,0.300,42.000,0.500,38.000,1.000,1.000,5.000,0
"05/04/08","23:04:55",155.000,"cc",28326.188,6,0.100,63.000,0.200,22.000,0.300,37.000,0.500,33.000,1.000,0,5.000,0
"05/04/08","23:05:01",216.000,"cc",28304.375,6,0.100,96.000,0.200,28.000,0.300,47.000,0.500,42.000,1.000,3.000,5.000,0
"05/04/08","23:05:07",178.000,"cc",28368.883,6,0.100,68.000,0.200,27.000,0.300,30.000,0.500,52.000,1.000,1.000,5.000,0
"05/04/08","23:05:13",206.000,"cc",28325.004,6,0.100,90.000,0.200,28.000,0.300,46.000,0.500,41.000,1.000,1.000,5.000,0
"05/04/08","23:05:19",204.000,"cc",28320.242,6,0.100,87.000,0.200,33.000,0.300,36.000,0.500,47.000,1.000,1.000,5.000,0
"05/04/08","23:05:25",194.000,"cc",28336.178,6,0.100,84.000,0.200,33.000,0.300,38.000,0.500,37.000,1.000,2.000,5.000,0
"05/04/08","23:05:31",200.000,"cc",28271.902,6,0.100,92.000,0.200,30.000,0.300,30.000,0.500,48.000,1.000,0,5.000,0
"05/04/08","23:05:37",208.000,"cc",28335.465,6,0.100,81.000,0.200,23.000,0.300,54.000,0.500,50.000,1.000,0,5.000,0
"05/04/08","23:05:43",193.000,"cc",28295.941,6,0.100,71.000,0.200,13.000,0.300,63.000,0.500,45.000,1.000,1.000,5.000,0
"05/04/08","23:05:49",194.000,"cc",28355.904,6,0.100,79.000,0.200,21.000,0.300,39.000,0.500,55.000,1.000,0,5.000,0
"05/04/08","23:05:55",222.000,"cc",28343.231,6,0.100,85.000,0.200,29.000,0.300,57.000,0.500,51.000,1.000,0,5.000,0
"05/04/08","23:06:01",221.000,"cc",28335.102,6,0.100,88.000,0.200,33.000,0.300,52.000,0.500,48.000,1.000,0,5.000,0
"05/04/08","23:06:07",232.000,"cc",28308.941,6,0.100,79.000,0.200,27.000,0.300,63.000,0.500,62.000,1.000,1.000,5.000,0
"05/04/08","23:06:13",218.000,"cc",28271.527,6,0.100,88.000,0.200,34.000,0.300,45.000,0.500,51.000,1.000,0,5.000,0
"05/04/08","23:06:19",186.000,"cc",28263.246,6,0.100,69.000,0.200,24.000,0.300,50.000,0.500,43.000,1.000,0,5.000,0
"05/04/08","23:06:25",225.000,"cc",28320.117,6,0.100,90.000,0.200,28.000,0.300,49.000,0.500,56.000,1.000,2.000,5.000,0
"05/04/08","23:06:31",237.000,"cc",28353.672,6,0.100,104.000,0.200,36.000,0.300,41.000,0.500,56.000,1.000,0,5.000,0
"05/04/08","23:06:37",182.000,"cc",28319.068,6,0.100,60.000,0.200,30.000,0.300,49.000,0.500,43.000,1.000,0,5.000,0
"05/04/08","23:06:43",214.000,"cc",28303.731,6,0.100,88.000,0.200,21.000,0.300,54.000,0.500,51.000,1.000,0,5.000,0
"05/04/08","23:06:49",190.000,"cc",28362.029,6,0.100,62.000,0.200,23.000,0.300,61.000,0.500,44.000,1.000,0,5.000,0
"05/04/08","23:06:55",193.000,"cc",28270.076,6,0.100,73.000,0.200,24.000,0.300,45.000,0.500,49.000,1.000,2.000,5.000,0
"05/04/08","23:07:01",273.000,"cc",28347.666,6,0.100,111.000,0.200,27.000,0.300,82.000,0.500,53.000,1.000,0,5.000,0
"05/04/08","23:07:07",254.000,"cc",28264.061,6,0.100,99.000,0.200,32.000,0.300,52.000,0.500,70.000,1.000,1.000,5.000,0
"05/04/08","23:07:13",213.000,"cc",28256.207,6,0.100,84.000,0.200,36.000,0.300,53.000,0.500,40.000,1.000,0,5.000,0
"05/04/08","23:07:19",217.000,"cc",28348.121,6,0.100,72.000,0.200,24.000,0.300,68.000,0.500,52.000,1.000,1.000,5.000,0
"05/04/08","23:07:25",222.000,"cc",28354.803,6,0.100,79.000,0.200,28.000,0.300,58.000,0.500,55.000,1.000,2.000,5.000,0
"05/04/08","23:07:31",232.000,"cc",28358.994,6,0.100,93.000,0.200,24.000,0.300,51.000,0.500,63.000,1.000,1.000,5.000,0
"05/04/08","23:07:37",212.000,"cc",28253.643,6,0.100,74.000,0.200,31.000,0.300,46.000,0.500,61.000,1.000,0,5.000,0
"05/04/08","23:07:43",229.000,"cc",28382.217,6,0.100,72.000,0.200,39.000,0.300,55.000,0.500,62.000,1.000,1.000,5.000,0
"05/04/08","23:07:49",207.000,"cc",28303.377,6,0.100,79.000,0.200,27.000,0.300,51.000,0.500,49.000,1.000,1.000,5.000,0
"05/04/08","23:07:55",236.000,"cc",28291.725,6,0.100,83.000,0.200,36.000,0.300,51.000,0.500,66.000,1.000,0,5.000,0
"05/04/08","23:08:01",278.000,"cc",28290.234,6,0.100,103.000,0.200,43.000,0.300,63.000,0.500,68.000,1.000,1.000,5.000,0
"05/04/08","23:08:07",229.000,"cc",28342.895,6,0.100,74.000,0.200,30.000,0.300,65.000,0.500,59.000,1.000,1.000,5.000,0
"05/04/08","23:08:13",226.000,"cc",28289.928,6,0.100,86.000,0.200,28.000,0.300,45.000,0.500,67.000,1.000,0,5.000,0
"05/04/08","23:08:19",203.000,"cc",28331.410,6,0.100,81.000,0.200,25.000,0.300,41.000,0.500,55.000,1.000,1.000,5.000,0
"05/04/08","23:08:25",222.000,"cc",28316.119,6,0.100,100.000,0.200,28.000,0.300,43.000,0.500,51.000,1.000,0,5.000,0
"05/04/08","23:08:31",213.000,"cc",28296.434,6,0.100,80.000,0.200,25.000,0.300,48.000,0.500,60.000,1.000,0,5.000,0
"05/04/08","23:08:37",262.000,"cc",28362.738,6,0.100,109.000,0.200,28.000,0.300,58.000,0.500,66.000,1.000,1.000,5.000,0
"05/04/08","23:08:43",224.000,"cc",28310.039,6,0.100,82.000,0.200,25.000,0.300,40.000,0.500,75.000,1.000,2.000,5.000,0
"05/04/08","23:08:49",209.000,"cc",28309.422,6,0.100,70.000,0.200,22.000,0.300,50.000,0.500,66.000,1.000,1.000,5.000,0
"05/04/08","23:08:55",226.000,"cc",28307.389,6,0.100,87.000,0.200,30.000,0.300,52.000,0.500,55.000,1.000,2.000,5.000,0
"05/04/08","23:09:01",269.000,"cc",28319.900,6,0.100,94.000,0.200,33.000,0.300,64.000,0.500,77.000,1.000,1.000,5.000,0
"05/04/08","23:09:07",255.000,"cc",28378.924,6,0.100,94.000,0.200,27.000,0.300,56.000,0.500,76.000,1.000,2.000,5.000,0
"05/04/08","23:09:13",262.000,"cc",28326.270,6,0.100,91.000,0.200,38.000,0.300,60.000,0.500,73.000,1.000,0,5.000,0
"05/04/08","23:09:19",264.000,"cc",28282.908,6,0.100,111.000,0.200,27.000,0.300,49.000,0.500,75.000,1.000,2.000,5.000,0
"05/04/08","23:09:25",238.000,"cc",28285.625,6,0.100,84.000,0.200,29.000,0.300,48.000,0.500,77.000,1.000,0,5.000,0
"05/04/08","23:09:31",245.000,"cc",28331.959,6,0.100,97.000,0.200,32.000,0.300,51.000,0.500,64.000,1.000,1.000,5.000,0
"05/04/08","23:09:37",252.000,"cc",28313.102,6,0.100,94.000,0.200,30.000,0.300,61.000,0.500,66.000,1.000,1.000,5.000,0
"05/04/08","23:09:43",228.000,"cc",28275.688,6,0.100,69.000,0.200,25.000,0.300,56.000,0.500,76.000,1.000,2.000,5.000,0
"05/04/08","23:09:49",218.000,"cc",28338.266,6,0.100,68.000,0.200,27.000,0.300,55.000,0.500,67.000,1.000,1.000,5.000,0
"05/04/08","23:09:55",251.000,"cc",28357.231,6,0.100,87.000,0.200,34.000,0.300,52.000,0.500,77.000,1.000,1.000,5.000,0
"05/04/08","23:10:01",253.000,"cc",28332.055,6,0.100,89.000,0.200,32.000,0.300,45.000,0.500,86.000,1.000,1.000,5.000,0
"05/04/08","23:10:07",269.000,"cc",28280.316,6,0.100,89.000,0.200,50.000,0.300,50.000,0.500,79.000,1.000,1.000,5.000,0
"05/04/08","23:10:13",240.000,"cc",28321.729,6,0.100,81.000,0.200,29.000,0.300,51.000,0.500,79.000,1.000,0,5.000,0
"05/04/08","23:10:19",271.000,"cc",28324.141,6,0.100,105.000,0.200,32.000,0.300,54.000,0.500,77.000,1.000,3.000,5.000,0
"05/04/08","23:10:25",273.000,"cc",28346.412,6,0.100,102.000,0.200,31.000,0.300,59.000,0.500,80.000,1.000,1.000,5.000,0
"05/04/08","23:10:31",280.000,"cc",28283.945,6,0.100,111.000,0.200,33.000,0.300,50.000,0.500,85.000,1.000,1.000,5.000,0
"05/04/08","23:10:37",272.000,"cc",28297.729,6,0.100,106.000,0.200,26.000,0.300,52.000,0.500,86.000,1.000,2.000,5.000,0
"05/04/08","23:10:43",226.000,"cc",28352.115,6,0.100,82.000,0.200,25.000,0.300,44.000,0.500,73.000,1.000,2.000,5.000,0
"05/04/08","23:10:49",265.000,"cc",28321.482,6,0.100,104.000,0.200,32.000,0.300,50.000,0.500,77.000,1.000,2.000,5.000,0
"05/04/08","23:10:55",253.000,"cc",28288.815,6,0.100,101.000,0.200,27.000,0.300,56.000,0.500,67.000,1.000,2.000,5.000,0
"05/04/08","23:11:01",253.000,"cc",28322.596,6,0.100,99.000,0.200,28.000,0.300,43.000,0.500,82.000,1.000,1.000,5.000,0
"05/04/08","23:11:07",268.000,"cc",28331.699,6,0.100,85.000,0.200,38.000,0.300,58.000,0.500,84.000,1.000,3.000,5.000,0
"05/04/08","23:11:13",266.000,"cc",28286.043,6,0.100,93.000,0.200,30.000,0.300,49.000,0.500,93.000,1.000,1.000,5.000,0
"05/04/08","23:11:19",247.000,"cc",28313.639,6,0.100,84.000,0.200,28.000,0.300,56.000,0.500,77.000,1.000,2.000,5.000,0
"05/04/08","23:11:25",269.000,"cc",28296.305,6,0.100,97.000,0.200,41.000,0.300,57.000,0.500,74.000,1.000,0,5.000,0
"05/04/08","23:11:31",222.000,"cc",28288.191,6,0.100,69.000,0.200,28.000,0.300,44.000,0.500,80.000,1.000,1.000,5.000,0
"05/04/08","23:11:37",258.000,"cc",28355.707,6,0.100,79.000,0.200,34.000,0.300,71.000,0.500,73.000,1.000,1.000,5.000,0
"05/04/08","23:11:43",250.000,"cc",28321.971,6,0.100,91.000,0.200,32.000,0.300,48.000,0.500,78.000,1.000,1.000,5.000,0
"05/04/08","23:11:49",235.000,"cc",28338.223,6,0.100,82.000,0.200,23.000,0.300,55.000,0.500,75.000,1.000,0,5.000,0
"05/04/08","23:11:55",289.000,"cc",28344.356,6,0.100,118.000,0.200,41.000,0.300,66.000,0.500,62.000,1.000,2.000,5.000,0
"05/04/08","23:12:01",251.000,"cc",28293.783,6,0.100,80.000,0.200,37.000,0.300,56.000,0.500,76.000,1.000,2.000,5.000,0
"05/04/08","23:12:07",268.000,"cc",28316.725,6,0.100,97.000,0.200,37.000,0.300,50.000,0.500,83.000,1.000,1.000,5.000,0
"05/04/08","23:12:13",283.000,"cc",28308.203,6,0.100,107.000,0.200,25.000,0.300,50.000,0.500,99.000,1.000,2.000,5.000,0
"05/04/08","23:12:19",245.000,"cc",28321.434,6,0.100,84.000,0.200,25.000,0.300,43.000,0.500,92.000,1.000,1.000,5.000,0
"05/04/08","23:12:25",274.000,"cc",28281.039,6,0.100,101.000,0.200,34.000,0.300,55.000,0.500,83.000,1.000,1.000,5.000,0
"05/04/08","23:12:31",271.000,"cc",28333.184,6,0.100,121.000,0.200,26.000,0.300,48.000,0.500,73.000,1.000,3.000,5.000,0
"05/04/08","23:12:37",245.000,"cc",28333.262,6,0.100,99.000,0.200,31.000,0.300,37.000,0.500,77.000,1.000,1.000,5.000,0
"05/04/08","23:12:43",223.000,"cc",28311.201,6,0.100,95.000,0.200,29.000,0.300,39.000,0.500,59.000,1.000,1.000,5.000,0
"05/04/08","23:12:49",261.000,"cc",28340.867,6,0.100,89.000,0.200,28.000,0.300,48.000,0.500,95.000,1.000,1.000,5.000,0
"05/04/08","23:12:55",267.000,"cc",28325.643,6,0.100,109.000,0.200,37.000,0.300,54.000,0.500,67.000,1.000,0,5.000,0
"05/04/08","23:13:01",258.000,"cc",28308.627,6,0.100,99.000,0.200,27.000,0.300,53.000,0.500,78.000,1.000,1.000,5.000,0
"05/04/08","23:13:07",259.000,"cc",28278.572,6,0.100,91.000,0.200,32.000,0.300,59.000,0.500,76.000,1.000,1.000,5.000,0
"05/04/08","23:13:13",256.000,"cc",28338.719,6,0.100,101.000,0.200,24.000,0.300,43.000,0.500,83.000,1.000,5.000,5.000,0
"05/04/08","23:13:19",249.000,"cc",28355.287,6,0.100,89.000,0.200,27.000,0.300,50.000,0.500,81.000,1.000,2.000,5.000,0
"05/04/08","23:13:25",260.000,"cc",28232.918,6,0.100,118.000,0.200,28.000,0.300,44.000,0.500,67.000,1.000,3.000,5.000,0
"05/04/08","23:13:31",247.000,"cc",28287.301,6,0.100,96.000,0.200,24.000,0.300,45.000,0.500,82.000,1.000,0,5.000,0
"05/04/08","23:13:37",249.000,"cc",28330.160,6,0.100,81.000,0.200,26.000,0.300,52.000,0.500,88.000,1.000,2.000,5.000,0
"05/04/08","23:13:43",259.000,"cc",28278.094,6,0.100,83.000,0.200,39.000,0.300,51.000,0.500,86.000,1.000,0,5.000,0
"05/04/08","23:13:49",251.000,"cc",28352.252,6,0.100,81.000,0.200,29.000,0.300,45.000,0.500,92.000,1.000,4.000,5.000,0
"05/04/08","23:13:55",251.000,"cc",28352.752,6,0.100,107.000,0.200,26.000,0.300,50.000,0.500,66.000,1.000,2.000,5.000,0
"05/04/08","23:14:01",230.000,"cc",28274.910,6,0.100,83.000,0.200,24.000,0.300,40.000,0.500,80.000,1.000,3.000,5.000,0
"05/04/08","23:14:07",221.000,"cc",28290.777,6,0.100,77.000,0.200,29.000,0.300,39.000,0.500,74.000,1.000,2.000,5.000,0
"05/04/08","23:14:13",302.000,"cc",28276.217,6,0.100,93.000,0.200,41.000,0.300,71.000,0.500,95.000,1.000,2.000,5.000,0
"05/04/08","23:14:19",251.000,"cc",28301.143,6,0.100,77.000,0.200,29.000,0.300,52.000,0.500,90.000,1.000,3.000,5.000,0
"05/04/08","23:14:25",269.000,"cc",28426.832,6,0.100,101.000,0.200,36.000,0.300,55.000,0.500,76.000,1.000,1.000,5.000,0
"05/04/08","23:14:31",265.000,"cc",28355.211,6,0.100,97.000,0.200,32.000,0.300,44.000,0.500,90.000,1.000,2.000,5.000,0
"05/04/08","23:14:37",246.000,"cc",28267.432,6,0.100,91.000,0.200,22.000,0.300,61.000,0.500,70.000,1.000,2.000,5.000,0
"05/04/08","23:14:43",250.000,"cc",28314.344,6,0.100,86.000,0.200,31.000,0.300,43.000,0.500,88.000,1.000,2.000,5.000,0
"05/04/08","23:14:49",228.000,"cc",28311.244,6,0.100,88.000,0.200,21.000,0.300,38.000,0.500,78.000,1.000,3.000,5.000,0
"05/04/08","23:14:55",230.000,"cc",28372.758,6,0.100,76.000,0.200,22.000,0.300,39.000,0.500,89.000,1.000,4.000,5.000,0
"05/04/08","23:15:01",269.000,"cc",28342.272,6,0.100,111.000,0.200,26.000,0.300,50.000,0.500,79.000,1.000,3.000,5.000,0
"05/04/08","23:15:07",254.000,"cc",28275.863,6,0.100,87.000,0.200,30.000,0.300,48.000,0.500,88.000,1.000,1.000,5.000,0
"05/04/08","23:15:13",266.000,"cc",28334.469,6,0.100,106.000,0.200,24.000,0.300,53.000,0.500,80.000,1.000,3.000,5.000,0
"05/04/08","23:15:19",253.000,"cc",28291.783,6,0.100,105.000,0.200,22.000,0.300,43.000,0.500,80.000,1.000,3.000,5.000,0
"05/04/08","23:15:25",271.000,"cc",28277.594,6,0.100,110.000,0.200,20.000,0.300,61.000,0.500,77.000,1.000,3.000,5.000,0
"05/04/08","23:15:31",228.000,"cc",28288.523,6,0.100,94.000,0.200,25.000,0.300,40.000,0.500,67.000,1.000,2.000,5.000,0
"05/04/08","23:15:37",273.000,"cc",28381.957,6,0.100,103.000,0.200,33.000,0.300,53.000,0.500,81.000,1.000,3.000,5.000,0
"05/04/08","23:15:43",250.000,"cc",28336.338,6,0.100,105.000,0.200,32.000,0.300,43.000,0.500,69.000,1.000,1.000,5.000,0
"05/04/08","23:15:49",249.000,"cc",28297.201,6,0.100,92.000,0.200,33.000,0.300,43.000,0.500,79.000,1.000,2.000,5.000,0
"05/04/08","23:15:55",251.000,"cc",28306.531,6,0.100,90.000,0.200,27.000,0.300,54.000,0.500,79.000,1.000,1.000,5.000,0
"05/04/08","23:16:01",257.000,"cc",28283.328,6,0.100,92.000,0.200,33.000,0.300,52.000,0.500,79.000,1.000,1.000,5.000,0
"05/04/08","23:16:07",274.000,"cc",28321.176,6,0.100,114.000,0.200,33.000,0.300,50.000,0.500,74.000,1.000,3.000,5.000,0
"05/04/08","23:16:13",247.000,"cc",28279.391,6,0.100,94.000,0.200,29.000,0.300,46.000,0.500,76.000,1.000,2.000,5.000,0
"05/04/08","23:16:19",267.000,"cc",28401.180,6,0.100,99.000,0.200,34.000,0.300,48.000,0.500,83.000,1.000,3.000,5.000,0
"05/04/08","23:16:25",219.000,"cc",28298.846,6,0.100,81.000,0.200,26.000,0.300,45.000,0.500,65.000,1.000,2.000,5.000,0
"05/04/08","23:16:31",235.000,"cc",28280.707,6,0.100,74.000,0.200,32.000,0.300,57.000,0.500,72.000,1.000,0,5.000,0
"05/04/08","23:16:37",251.000,"cc",28383.777,6,0.100,107.000,0.200,26.000,0.300,51.000,0.500,66.000,1.000,1.000,5.000,0
"05/04/08","23:16:43",224.000,"cc",28276.326,6,0.100,99.000,0.200,25.000,0.300,38.000,0.500,59.000,1.000,3.000,5.000,0
"05/04/08","23:16:49",230.000,"cc",28327.486,6,0.100,82.000,0.200,35.000,0.300,49.000,0.500,63.000,1.000,1.000,5.000,0
"05/04/08","23:16:55",259.000,"cc",28330.828,6,0.100,94.000,0.200,35.000,0.300,62.000,0.500,68.000,1.000,0,5.000,0
"05/04/08","23:17:01",264.000,"cc",28325.820,6,0.100,113.000,0.200,24.000,0.300,50.000,0.500,76.000,1.000,1.000,5.000,0
"05/04/08","23:17:07",242.000,"cc",28244.760,6,0.100,100.000,0.200,30.000,0.300,47.000,0.500,65.000,1.000,0,5.000,0
"05/04/08","23:17:13",216.000,"cc",28339.012,6,0.100,64.000,0.200,31.000,0.300,48.000,0.500,72.000,1.000,1.000,5.000,0
"05/04/08","23:17:19",221.000,"cc",28318.545,6,0.100,79.000,0.200,30.000,0.300,54.000,0.500,58.000,1.000,0,5.000,0
"05/04/08","23:17:25",257.000,"cc",28305.865,6,0.100,91.000,0.200,37.000,0.300,58.000,0.500,68.000,1.000,3.000,5.000,0
"05/04/08","23:17:31",251.000,"cc",28271.885,6,0.100,114.000,0.200,24.000,0.300,46.000,0.500,67.000,1.000,0,5.000,0
"05/04/08","23:17:37",214.000,"cc",28336.381,6,0.100,74.000,0.200,30.000,0.300,41.000,0.500,68.000,1.000,1.000,5.000,0
"05/04/08","23:17:43",198.000,"cc",28347.025,6,0.100,73.000,0.200,24.000,0.300,45.000,0.500,56.000,1.000,0,5.000,0
"05/04/08","23:17:49",197.000,"cc",28310.678,6,0.100,78.000,0.200,32.000,0.300,43.000,0.500,44.000,1.000,0,5.000,0
"05/04/08","23:17:55",230.000,"cc",28316.045,6,0.100,90.000,0.200,25.000,0.300,45.000,0.500,70.000,1.000,0,5.000,0
"05/04/08","23:18:01",207.000,"cc",28310.719,6,0.100,97.000,0.200,25.000,0.300,32.000,0.500,52.000,1.000,1.000,5.000,0
"05/04/08","23:18:07",205.000,"cc",28334.957,6,0.100,94.000,0.200,33.000,0.300,27.000,0.500,51.000,1.000,0,5.000,0
"05/04/08","23:18:13",216.000,"cc",28296.510,6,0.100,94.000,0.200,29.000,0.300,39.000,0.500,54.000,1.000,0,5.000,0
"05/04/08","23:18:19",234.000,"cc",28331.309,6,0.100,101.000,0.200,34.000,0.300,46.000,0.500,53.000,1.000,0,5.000,0
"05/04/08","23:18:25",240.000,"cc",28305.883,6,0.100,106.000,0.200,31.000,0.300,42.000,0.500,60.000,1.000,1.000,5.000,0
"05/04/08","23:18:31",177.000,"cc",28329.666,6,0.100,71.000,0.200,26.000,0.300,42.000,0.500,38.000,1.000,0,5.000,0
"05/04/08","23:18:37",218.000,"cc",28270.926,6,0.100,97.000,0.200,35.000,0.300,46.000,0.500,40.000,1.000,0,5.000,0
"05/04/08","23:18:43",178.000,"cc",28362.986,6,0.100,70.000,0.200,36.000,0.300,31.000,0.500,39.000,1.000,2.000,5.000,0
"05/04/08","23:18:49",217.000,"cc",28299.795,6,0.100,87.000,0.200,38.000,0.300,35.000,0.500,57.000,1.000,0,5.000,0
"05/04/08","23:18:55",206.000,"cc",28302.188,6,0.100,94.000,0.200,21.000,0.300,37.000,0.500,53.000,1.000,1.000,5.000,0
"05/04/08","23:19:01",223.000,"cc",28370.316,6,0.100,97.000,0.200,36.000,0.300,35.000,0.500,54.000,1.000,1.000,5.000,0
"05/04/08","23:19:07",193.000,"cc",28355.859,6,0.100,93.000,0.200,26.000,0.300,29.000,0.500,45.000,1.000,0,5.000,0